Time,TemperatureF,DewpointF,PressureIn,WindDirection,WindDirectionDegrees,WindSpeedMPH,WindSpeedGustMPH,Humidity,HourlyPrecipIn,Conditions,Clouds,dailyrainin,SoftwareType,DateUTC
2013-08-11 00:04:00,61.2,56.0,29.36,West,270,2.3,0.0,83,0.00,CLR,,0.00,WeatherDisplay:10.37,2013-08-11 07:04:00,
2013-08-11 00:10:00,61.0,56.1,29.37,West,270,1.0,0.0,84,0.00,CLR,CLR,0.00,WeatherDisplay:10.37,2013-08-11 07:10:00,
2013-08-11 00:15:00,60.8,55.9,29.37,West,270,1.1,0.0,84,0.00,CLR,,0.00,WeatherDisplay:10.37,2013-08-11 07:15:00,
2013-08-11 00:20:00,60.6,55.8,29.38,West,270,2.3,2.3,84,0.00,CLR,,0.00,WeatherDisplay:10.37,2013-08-11 07:20:00,
2013-08-11 00:25:00,60.4,55.9,29.39,West,270,2.3,0.0,85,0.00,CLR,,0.00,WeatherDisplay:10.37,2013-08-11 07:25:00,
2013-08-11 00:31:00,60.3,55.7,29.38,West,270,2.3,2.3,85,0.00,CLR,,0.00,WeatherDisplay:10.37,2013-08-11 07:31:00,
2013-08-11 00:36:00,60.3,55.7,29.38,West,270,1.1,1.1,85,0.00,CLR,,0.00,WeatherDisplay:10.37,2013-08-11 07:36:00,
2013-08-11 00:41:00,60.1,55.9,29.38,West,270,1.1,0.0,86,0.00,CLR,,0.00,WeatherDisplay:10.37,2013-08-11 07:41:00,
2013-08-11 00:46:00,60.1,55.9,29.37,West,270,2.3,0.0,86,0.00,CLR,,0.00,WeatherDisplay:10.37,2013-08-11 07:46:00,
2013-08-11 00:52:00,59.9,55.4,29.38,West,270,0.0,0.0,85,0.00,CLR,,0.00,WeatherDisplay:10.37,2013-08-11 07:52:00,
2013-08-11 00:57:00,60.1,55.9,29.39,South,180,1.1,0.0,86,0.00,CLR,,0.00,WeatherDisplay:10.37,2013-08-11 07:57:00,
2013-08-11 01:02:00,59.9,55.7,29.38,West,270,1.1,1.1,86,0.00,CLR,,0.00,WeatherDisplay:10.37,2013-08-11 08:02:00,
2013-08-11 01:07:00,59.9,55.7,29.38,West,270,2.3,0.0,86,0.00,CLR,,0.00,WeatherDisplay:10.37,2013-08-11 08:07:00,
2013-08-11 01:13:00,59.7,55.5,29.38,SW,225,1.1,0.0,86,0.00,CLR,,0.00,WeatherDisplay:10.37,2013-08-11 08:13:00,
2013-08-11 01:18:00,59.5,55.3,29.37,West,270,1.1,0.0,86,0.00,CLR,,0.00,WeatherDisplay:10.37,2013-08-11 08:18:00,
2013-08-11 01:24:00,59.5,55.7,29.37,North,0,1.1,0.0,87,0.00,CLR,,0.00,WeatherDisplay:10.37,2013-08-11 08:24:00,
2013-08-11 01:29:00,59.4,55.5,29.37,NW,315,1.1,0.0,87,0.00,CLR,,0.00,WeatherDisplay:10.37,2013-08-11 08:29:00,
2013-08-11 01:34:00,59.4,55.5,29.35,SW,225,1.1,1.1,87,0.00,CLR,,0.00,WeatherDisplay:10.37,2013-08-11 08:34:00,
2013-08-11 01:40:00,59.4,55.5,29.35,West,267,1.0,0.0,87,0.00,CLR,CLR,0.00,WeatherDisplay:10.37,2013-08-11 08:40:00,
2013-08-11 01:45:00,59.2,55.6,29.36,SW,226,0.0,0.0,88,0.00,CLR,CLR,0.00,WeatherDisplay:10.37,2013-08-11 08:45:00,
2013-08-11 01:50:00,59.2,55.6,29.36,SW,226,0.0,0.0,88,0.00,CLR,CLR,0.00,WeatherDisplay:10.37,2013-08-11 08:50:00,
2013-08-11 01:55:00,59.2,55.6,29.36,SW,225,0.0,0.0,88,0.00,CLR,CLR,0.00,WeatherDisplay:10.37,2013-08-11 08:55:00,
2013-08-11 02:00:00,59.2,55.6,29.36,SW,225,0.0,0.0,88,0.00,CLR,CLR,0.00,WeatherDisplay:10.37,2013-08-11 09:00:00,
2013-08-11 02:05:00,59.2,55.6,29.37,SW,225,1.1,0.0,88,0.00,CLR,,0.00,WeatherDisplay:10.37,2013-08-11 09:05:00,
2013-08-11 02:10:00,59.2,55.6,29.37,SW,225,0.0,0.0,88,0.00,CLR,CLR,0.00,WeatherDisplay:10.37,2013-08-11 09:10:00,
2013-08-11 02:15:00,59.0,55.1,29.38,West,270,3.5,3.5,87,0.00,CLR,,0.00,WeatherDisplay:10.37,2013-08-11 09:15:00,
2013-08-11 02:20:00,58.8,55.0,29.38,West,270,2.3,2.3,87,0.00,CLR,,0.00,WeatherDisplay:10.37,2013-08-11 09:20:00,
2013-08-11 02:25:00,58.6,54.8,29.38,West,270,1.1,0.0,87,0.00,CLR,,0.00,WeatherDisplay:10.37,2013-08-11 09:25:00,
2013-08-11 02:30:00,58.3,54.7,29.38,West,270,2.3,2.3,88,0.00,CLR,,0.00,WeatherDisplay:10.37,2013-08-11 09:30:00,
2013-08-11 02:35:00,58.1,54.6,29.38,West,270,3.5,0.0,88,0.00,CLR,,0.00,WeatherDisplay:10.37,2013-08-11 09:35:00,
2013-08-11 02:41:00,57.7,54.5,29.38,West,270,3.5,3.5,89,0.00,CLR,,0.00,WeatherDisplay:10.37,2013-08-11 09:41:00,
2013-08-11 02:46:00,57.6,54.3,29.38,West,270,3.5,3.5,89,0.00,CLR,,0.00,WeatherDisplay:10.37,2013-08-11 09:46:00,
2013-08-11 02:51:00,57.0,54.1,29.38,West,270,2.3,2.3,90,0.01,RA,,0.01,WeatherDisplay:10.37,2013-08-11 09:51:00,
2013-08-11 02:56:00,56.8,54.2,29.37,SW,225,3.5,3.5,91,0.01,RA,,0.01,WeatherDisplay:10.37,2013-08-11 09:56:00,
2013-08-11 03:02:00,56.8,54.2,29.38,SW,225,2.3,2.3,91,0.01,CLR,,0.01,WeatherDisplay:10.37,2013-08-11 10:02:00,
2013-08-11 03:07:00,56.7,54.1,29.38,West,270,1.1,1.1,91,0.01,CLR,,0.01,WeatherDisplay:10.37,2013-08-11 10:07:00,
2013-08-11 03:12:00,56.7,54.1,29.39,West,270,1.1,0.0,91,0.01,CLR,,0.01,WeatherDisplay:10.37,2013-08-11 10:12:00,
2013-08-11 03:18:00,56.5,54.2,29.39,West,270,0.0,0.7,92,0.01,CLR,,0.01,WeatherDisplay:10.37,2013-08-11 10:18:00,
2013-08-11 03:24:00,56.5,54.2,29.38,West,270,2.3,2.3,92,0.01,CLR,,0.01,WeatherDisplay:10.37,2013-08-11 10:24:00,
2013-08-11 03:29:00,56.3,54.0,29.38,West,270,1.1,0.0,92,0.02,RA,,0.02,WeatherDisplay:10.37,2013-08-11 10:29:00,
2013-08-11 03:34:00,56.3,54.0,29.39,West,270,1.1,0.0,92,0.02,RA,,0.02,WeatherDisplay:10.37,2013-08-11 10:34:00,
2013-08-11 03:39:00,56.3,54.3,29.39,South,180,0.0,0.0,93,0.02,CLR,,0.02,WeatherDisplay:10.37,2013-08-11 10:39:00,
2013-08-11 03:45:00,56.3,54.3,29.38,West,270,2.3,2.3,93,0.02,CLR,,0.02,WeatherDisplay:10.37,2013-08-11 10:45:00,
2013-08-11 03:50:00,56.3,54.3,29.38,West,270,1.1,0.0,93,0.01,CLR,,0.02,WeatherDisplay:10.37,2013-08-11 10:50:00,
2013-08-11 03:55:00,56.3,54.3,29.38,West,270,0.0,0.0,93,0.02,RA,,0.04,WeatherDisplay:10.37,2013-08-11 10:55:00,
2013-08-11 04:01:00,56.3,54.3,29.38,West,270,1.1,0.0,93,0.04,RA,,0.05,WeatherDisplay:10.37,2013-08-11 11:01:00,
2013-08-11 04:06:00,56.3,54.6,29.38,West,270,1.1,0.0,94,0.04,RA,,0.05,WeatherDisplay:10.37,2013-08-11 11:06:00,
2013-08-11 04:11:00,56.3,54.6,29.38,West,270,3.5,0.0,94,0.05,RA,,0.06,WeatherDisplay:10.37,2013-08-11 11:11:00,
2013-08-11 04:16:00,56.1,54.4,29.39,West,270,1.1,0.0,94,0.05,RA,,0.06,WeatherDisplay:10.37,2013-08-11 11:16:00,
2013-08-11 04:21:00,56.1,54.4,29.39,SW,225,1.1,0.0,94,0.06,RA,,0.07,WeatherDisplay:10.37,2013-08-11 11:21:00,
2013-08-11 04:26:00,56.1,54.4,29.39,SW,225,0.0,0.0,94,0.06,RA,,0.07,WeatherDisplay:10.37,2013-08-11 11:26:00,
2013-08-11 04:32:00,56.1,54.4,29.39,SW,225,0.0,0.0,94,0.05,CLR,,0.07,WeatherDisplay:10.37,2013-08-11 11:32:00,
2013-08-11 04:37:00,56.1,54.4,29.40,SW,225,0.0,0.0,94,0.05,CLR,,0.07,WeatherDisplay:10.37,2013-08-11 11:37:00,
2013-08-11 04:42:00,56.1,54.4,29.39,SW,225,0.0,0.0,94,0.05,CLR,,0.07,WeatherDisplay:10.37,2013-08-11 11:42:00,
2013-08-11 04:47:00,56.1,54.4,29.39,SW,225,0.0,0.0,94,0.05,CLR,,0.07,WeatherDisplay:10.37,2013-08-11 11:47:00,
2013-08-11 04:52:00,56.1,54.4,29.39,SW,225,0.0,0.0,94,0.04,CLR,,0.07,WeatherDisplay:10.37,2013-08-11 11:52:00,
2013-08-11 04:58:00,56.3,54.6,29.40,SW,225,0.0,0.0,94,0.05,RA,,0.09,WeatherDisplay:10.37,2013-08-11 11:58:00,
2013-08-11 05:03:00,56.3,54.6,29.40,SW,225,0.0,0.0,94,0.05,RA,,0.09,WeatherDisplay:10.37,2013-08-11 12:03:00,
2013-08-11 05:08:00,56.3,54.9,29.40,SW,225,0.0,0.0,95,0.07,RA,,0.12,WeatherDisplay:10.37,2013-08-11 12:08:00,
2013-08-11 05:13:00,56.3,54.9,29.40,SW,225,0.0,0.0,95,0.07,RA,,0.13,WeatherDisplay:10.37,2013-08-11 12:13:00,
2013-08-11 05:18:00,56.1,54.7,29.40,SW,225,0.0,0.0,95,0.06,RA,,0.13,WeatherDisplay:10.37,2013-08-11 12:18:00,
2013-08-11 05:24:00,56.1,54.7,29.41,SW,225,0.0,0.0,95,0.07,RA,,0.14,WeatherDisplay:10.37,2013-08-11 12:24:00,
2013-08-11 05:29:00,56.1,54.7,29.42,SW,225,0.0,0.0,95,0.07,RA,,0.14,WeatherDisplay:10.37,2013-08-11 12:29:00,
2013-08-11 05:35:00,56.3,54.9,29.41,SW,225,0.0,0.0,95,0.00,,,0.14,WeatherDisplay:10.37,2013-08-11 12:35:00,
2013-08-11 05:40:00,56.5,55.1,29.41,SW,225,0.0,0.0,95,0.07,CLR,,0.14,WeatherDisplay:10.37,2013-08-11 12:40:00,
2013-08-11 05:45:00,56.5,55.1,29.41,SW,225,0.0,0.0,95,0.00,CLR,CLR,0.14,WeatherDisplay:10.37,2013-08-11 12:45:00,
2013-08-11 05:50:00,56.5,55.1,29.41,SW,225,0.0,0.0,95,0.07,CLR,,0.14,WeatherDisplay:10.37,2013-08-11 12:50:00,
2013-08-11 05:55:00,56.5,55.1,29.40,SW,225,0.0,0.0,95,0.00,CLR,CLR,0.14,WeatherDisplay:10.37,2013-08-11 12:55:00,
2013-08-11 06:00:00,56.7,55.2,29.40,SW,225,0.0,0.0,95,0.00,CLR,CLR,0.14,WeatherDisplay:10.37,2013-08-11 13:00:00,
2013-08-11 06:05:00,56.7,55.2,29.40,SW,225,0.0,0.0,95,0.04,CLR,,0.14,WeatherDisplay:10.37,2013-08-11 13:05:00,
2013-08-11 06:11:00,56.5,55.1,29.40,SW,225,0.0,0.0,95,0.02,CLR,,0.14,WeatherDisplay:10.37,2013-08-11 13:11:00,
2013-08-11 06:16:00,57.0,55.6,29.40,SW,225,0.0,0.0,95,0.01,CLR,,0.14,WeatherDisplay:10.37,2013-08-11 13:16:00,
2013-08-11 06:21:00,56.7,55.2,29.40,SW,225,0.0,0.0,95,0.01,CLR,,0.14,WeatherDisplay:10.37,2013-08-11 13:21:00,
2013-08-11 06:26:00,56.7,55.2,29.40,SW,225,0.0,0.0,95,0.00,CLR,,0.14,WeatherDisplay:10.37,2013-08-11 13:26:00,
2013-08-11 06:32:00,56.7,55.2,29.40,SW,225,0.0,0.0,95,0.00,CLR,,0.14,WeatherDisplay:10.37,2013-08-11 13:32:00,
2013-08-11 06:38:00,56.7,55.2,29.40,SW,225,0.0,0.0,95,0.00,CLR,,0.14,WeatherDisplay:10.37,2013-08-11 13:38:00,
2013-08-11 06:43:00,56.5,55.1,29.41,SW,225,0.0,0.0,95,0.00,CLR,,0.14,WeatherDisplay:10.37,2013-08-11 13:43:00,
2013-08-11 06:49:00,56.5,55.1,29.40,SW,225,0.0,0.0,95,0.00,CLR,,0.14,WeatherDisplay:10.37,2013-08-11 13:49:00,
2013-08-11 06:55:00,56.7,55.2,29.41,SW,225,0.0,0.0,95,0.00,CLR,,0.14,WeatherDisplay:10.37,2013-08-11 13:55:00,
2013-08-11 07:00:00,56.7,55.2,29.40,SW,225,0.0,0.0,95,0.00,CLR,,0.14,WeatherDisplay:10.37,2013-08-11 14:00:00,
2013-08-11 07:05:00,56.7,55.2,29.41,SW,225,0.0,0.0,95,0.00,CLR,CLR,0.14,WeatherDisplay:10.37,2013-08-11 14:05:00,
2013-08-11 07:10:00,56.8,55.7,29.41,SW,225,0.0,0.0,96,0.00,CLR,,0.14,WeatherDisplay:10.37,2013-08-11 14:10:00,
2013-08-11 07:15:00,56.8,55.7,29.41,SW,225,0.0,0.0,96,0.00,CLR,,0.14,WeatherDisplay:10.37,2013-08-11 14:15:00,
2013-08-11 07:20:00,56.8,55.7,29.41,SW,225,0.0,0.0,96,0.00,CLR,,0.14,WeatherDisplay:10.37,2013-08-11 14:20:00,
2013-08-11 07:26:00,57.0,55.9,29.41,SW,225,0.0,0.0,96,0.00,CLR,,0.14,WeatherDisplay:10.37,2013-08-11 14:26:00,
2013-08-11 07:31:00,57.2,56.1,29.41,SW,225,0.0,0.0,96,0.00,CLR,,0.14,WeatherDisplay:10.37,2013-08-11 14:31:00,
2013-08-11 07:36:00,57.4,56.2,29.41,SW,225,0.0,0.0,96,0.00,CLR,,0.14,WeatherDisplay:10.37,2013-08-11 14:36:00,
2013-08-11 07:41:00,57.6,56.4,29.42,SW,225,0.0,0.0,96,0.00,CLR,,0.14,WeatherDisplay:10.37,2013-08-11 14:41:00,
2013-08-11 07:46:00,57.6,56.4,29.41,SW,225,0.0,0.0,96,0.00,CLR,,0.14,WeatherDisplay:10.37,2013-08-11 14:46:00,
2013-08-11 07:52:00,57.7,56.6,29.41,SW,225,1.1,0.0,96,0.00,CLR,,0.14,WeatherDisplay:10.37,2013-08-11 14:52:00,
2013-08-11 07:57:00,57.7,56.6,29.42,SW,225,0.0,0.0,96,0.00,CLR,,0.14,WeatherDisplay:10.37,2013-08-11 14:57:00,
2013-08-11 08:02:00,57.9,56.8,29.41,SW,225,0.0,0.0,96,0.00,CLR,,0.14,WeatherDisplay:10.37,2013-08-11 15:02:00,
2013-08-11 08:07:00,57.9,56.8,29.41,SW,225,0.0,0.0,96,0.00,CLR,,0.14,WeatherDisplay:10.37,2013-08-11 15:07:00,
2013-08-11 08:13:00,57.9,56.8,29.42,SW,225,0.0,0.0,96,0.00,CLR,,0.14,WeatherDisplay:10.37,2013-08-11 15:13:00,
2013-08-11 08:18:00,57.7,56.6,29.41,SW,225,0.0,0.0,96,0.00,CLR,,0.14,WeatherDisplay:10.37,2013-08-11 15:18:00,
2013-08-11 08:24:00,57.9,56.8,29.41,SW,225,0.0,0.0,96,0.00,CLR,,0.14,WeatherDisplay:10.37,2013-08-11 15:24:00,
2013-08-11 08:29:00,58.1,57.0,29.42,SW,225,0.0,0.0,96,0.00,CLR,,0.14,WeatherDisplay:10.37,2013-08-11 15:29:00,
2013-08-11 08:34:00,58.5,57.3,29.42,SW,225,0.0,0.0,96,0.00,CLR,,0.14,WeatherDisplay:10.37,2013-08-11 15:34:00,
2013-08-11 08:39:00,58.8,57.7,29.42,SW,225,1.1,0.0,96,0.00,CLR,,0.14,WeatherDisplay:10.37,2013-08-11 15:39:00,
2013-08-11 08:44:00,59.0,57.9,29.42,SW,225,0.0,0.0,96,0.00,CLR,,0.14,WeatherDisplay:10.37,2013-08-11 15:44:00,
2013-08-11 08:49:00,59.2,58.0,29.42,SW,225,0.0,0.0,96,0.00,CLR,,0.14,WeatherDisplay:10.37,2013-08-11 15:49:00,
2013-08-11 08:54:00,59.5,58.4,29.42,SW,225,0.0,0.0,96,0.00,CLR,,0.14,WeatherDisplay:10.37,2013-08-11 15:54:00,
2013-08-11 08:59:00,59.7,58.6,29.42,SW,225,0.0,0.0,96,0.00,CLR,,0.14,WeatherDisplay:10.37,2013-08-11 15:59:00,
2013-08-11 09:05:00,59.7,58.5,29.42,SW,225,0.0,0.0,96,0.00,CLR,CLR,0.14,WeatherDisplay:10.37,2013-08-11 16:05:00,
2013-08-11 09:10:00,60.1,59.0,29.42,SW,225,0.0,0.0,96,0.00,CLR,CLR,0.14,WeatherDisplay:10.37,2013-08-11 16:10:00,
2013-08-11 09:15:00,60.6,59.5,29.42,SW,225,1.6,1.6,96,0.00,CLR,,0.14,WeatherDisplay:10.37,2013-08-11 16:15:00,
2013-08-11 09:20:00,60.8,59.4,29.41,SW,225,0.0,0.0,95,0.00,CLR,,0.14,WeatherDisplay:10.37,2013-08-11 16:20:00,
2013-08-11 09:25:00,61.3,59.9,29.41,West,270,1.1,0.0,95,0.00,CLR,,0.14,WeatherDisplay:10.37,2013-08-11 16:25:00,
2013-08-11 09:30:00,61.9,60.4,29.41,NW,315,1.1,0.0,95,0.00,CLR,,0.14,WeatherDisplay:10.37,2013-08-11 16:30:00,
2013-08-11 09:36:00,62.4,60.7,29.41,West,270,1.1,0.0,94,0.00,CLR,,0.14,WeatherDisplay:10.37,2013-08-11 16:36:00,
2013-08-11 09:41:00,62.4,60.1,29.41,West,270,1.1,0.0,92,0.00,CLR,,0.14,WeatherDisplay:10.37,2013-08-11 16:41:00,
2013-08-11 09:46:00,62.6,60.2,29.41,West,270,0.0,0.0,92,0.00,CLR,,0.14,WeatherDisplay:10.37,2013-08-11 16:46:00,
2013-08-11 09:51:00,62.1,59.4,29.42,West,270,1.1,0.0,91,0.00,CLR,,0.14,WeatherDisplay:10.37,2013-08-11 16:51:00,
2013-08-11 09:57:00,62.2,59.3,29.41,West,270,1.1,0.0,90,0.00,CLR,,0.14,WeatherDisplay:10.37,2013-08-11 16:57:00,
2013-08-11 10:02:00,62.6,59.3,29.42,West,270,1.1,0.0,89,0.00,CLR,,0.14,WeatherDisplay:10.37,2013-08-11 17:02:00,
2013-08-11 10:07:00,62.6,59.3,29.42,West,270,0.0,0.0,89,0.00,CLR,,0.14,WeatherDisplay:10.37,2013-08-11 17:07:00,
2013-08-11 10:12:00,62.8,59.5,29.42,West,270,1.1,0.0,89,0.00,CLR,,0.14,WeatherDisplay:10.37,2013-08-11 17:12:00,
2013-08-11 10:17:00,63.3,60.0,29.42,West,270,1.1,0.0,89,0.00,CLR,,0.14,WeatherDisplay:10.37,2013-08-11 17:17:00,
2013-08-11 10:24:00,63.9,60.2,29.41,NW,315,1.1,0.0,88,0.00,CLR,,0.14,WeatherDisplay:10.37,2013-08-11 17:24:00,
2013-08-11 10:29:00,65.3,61.0,29.41,SW,225,1.1,0.0,86,0.00,CLR,,0.14,WeatherDisplay:10.37,2013-08-11 17:29:00,
2013-08-11 10:34:00,65.8,60.5,29.41,West,270,1.1,0.0,83,0.00,CLR,,0.14,WeatherDisplay:10.37,2013-08-11 17:34:00,
2013-08-11 10:39:00,65.7,59.3,29.42,SW,225,2.2,2.2,80,0.00,CLR,,0.14,WeatherDisplay:10.37,2013-08-11 17:39:00,
2013-08-11 10:45:00,66.3,59.9,29.41,WSW,241,0.0,0.0,80,0.00,CLR,CLR,0.14,WeatherDisplay:10.37,2013-08-11 17:45:00,
2013-08-11 10:50:00,67.6,61.6,29.42,SW,225,1.1,0.0,81,0.00,CLR,,0.14,WeatherDisplay:10.37,2013-08-11 17:50:00,
2013-08-11 10:55:00,67.5,60.7,29.42,East,90,1.1,0.0,79,0.00,CLR,,0.14,WeatherDisplay:10.37,2013-08-11 17:55:00,
2013-08-11 11:00:00,66.6,59.5,29.42,West,270,1.1,0.0,78,0.00,CLR,,0.14,WeatherDisplay:10.37,2013-08-11 18:00:00,
2013-08-11 11:06:00,66.6,59.8,29.42,East,90,1.1,0.0,79,0.00,CLR,,0.14,WeatherDisplay:10.37,2013-08-11 18:06:00,
2013-08-11 11:11:00,66.9,59.8,29.42,East,90,1.1,0.0,78,0.00,CLR,,0.14,WeatherDisplay:10.37,2013-08-11 18:11:00,
2013-08-11 11:16:00,67.1,59.6,29.42,SE,135,2.3,2.3,77,0.00,CLR,,0.14,WeatherDisplay:10.37,2013-08-11 18:16:00,
2013-08-11 11:22:00,67.5,60.0,29.41,SE,135,1.1,0.0,77,0.00,CLR,,0.14,WeatherDisplay:10.37,2013-08-11 18:22:00,
2013-08-11 11:28:00,67.6,59.8,29.41,East,90,1.6,0.0,76,0.00,CLR,,0.14,WeatherDisplay:10.37,2013-08-11 18:28:00,
2013-08-11 11:33:00,68.0,60.2,29.41,South,180,1.1,0.0,76,0.00,CLR,,0.14,WeatherDisplay:10.37,2013-08-11 18:33:00,
2013-08-11 11:38:00,68.2,60.0,29.41,SE,135,1.1,0.0,75,0.00,CLR,,0.14,WeatherDisplay:10.37,2013-08-11 18:38:00,
2013-08-11 11:43:00,68.2,60.3,29.41,East,90,2.3,0.0,76,0.00,CLR,,0.14,WeatherDisplay:10.37,2013-08-11 18:43:00,
2013-08-11 11:48:00,68.2,59.6,29.41,SE,135,2.3,0.0,74,0.00,CLR,,0.14,WeatherDisplay:10.37,2013-08-11 18:48:00,
2013-08-11 11:54:00,68.5,59.5,29.40,East,90,1.1,0.0,73,0.00,CLR,,0.14,WeatherDisplay:10.37,2013-08-11 18:54:00,
2013-08-11 11:59:00,68.7,60.5,29.41,East,90,1.1,0.0,75,0.00,CLR,,0.14,WeatherDisplay:10.37,2013-08-11 18:59:00,
2013-08-11 12:05:00,69.2,61.3,29.41,East,100,0.0,0.0,76,0.00,CLR,CLR,0.14,WeatherDisplay:10.37,2013-08-11 19:05:00,
2013-08-11 12:10:00,69.4,60.4,29.41,East,98,0.0,0.0,73,0.00,CLR,CLR,0.14,WeatherDisplay:10.37,2013-08-11 19:10:00,
2013-08-11 12:15:00,70.3,61.7,29.41,East,90,1.1,0.0,74,0.00,CLR,,0.14,WeatherDisplay:10.37,2013-08-11 19:15:00,
2013-08-11 12:20:00,71.0,61.1,29.41,ESE,108,0.0,0.0,71,0.00,CLR,CLR,0.14,WeatherDisplay:10.37,2013-08-11 19:20:00,
2013-08-11 12:25:00,70.7,60.0,29.41,SE,135,2.3,2.3,69,0.00,CLR,,0.14,WeatherDisplay:10.37,2013-08-11 19:25:00,
2013-08-11 12:31:00,70.0,59.3,29.41,SW,225,1.1,0.0,69,0.00,CLR,,0.14,WeatherDisplay:10.37,2013-08-11 19:31:00,
2013-08-11 12:36:00,70.0,59.3,29.41,West,270,1.1,0.0,69,0.00,CLR,,0.14,WeatherDisplay:10.37,2013-08-11 19:36:00,
2013-08-11 12:41:00,69.8,59.6,29.41,West,270,1.1,0.0,70,0.00,CLR,,0.14,WeatherDisplay:10.37,2013-08-11 19:41:00,
2013-08-11 12:47:00,70.2,59.5,29.41,NE,45,1.1,0.0,69,0.00,CLR,,0.14,WeatherDisplay:10.37,2013-08-11 19:47:00,
2013-08-11 12:52:00,72.0,60.8,29.40,NW,315,3.5,0.0,68,0.00,CLR,,0.14,WeatherDisplay:10.37,2013-08-11 19:52:00,
2013-08-11 12:57:00,74.1,61.6,29.40,West,270,3.5,3.5,65,0.00,CLR,,0.14,WeatherDisplay:10.37,2013-08-11 19:57:00,
2013-08-11 13:02:00,74.3,60.0,29.41,South,180,1.6,1.6,61,0.00,CLR,,0.14,WeatherDisplay:10.37,2013-08-11 20:02:00,
2013-08-11 13:08:00,74.8,61.4,29.41,East,90,2.3,0.0,63,0.00,CLR,,0.14,WeatherDisplay:10.37,2013-08-11 20:08:00,
2013-08-11 13:13:00,75.0,60.2,29.41,NW,315,2.3,2.3,60,0.00,CLR,,0.14,WeatherDisplay:10.37,2013-08-11 20:13:00,
2013-08-11 13:18:00,74.3,59.5,29.41,West,270,3.5,3.5,60,0.00,CLR,,0.14,WeatherDisplay:10.37,2013-08-11 20:18:00,
2013-08-11 13:24:00,75.0,60.7,29.41,South,180,2.3,2.3,61,0.00,CLR,,0.14,WeatherDisplay:10.37,2013-08-11 20:24:00,
2013-08-11 13:29:00,76.3,60.9,29.40,West,270,3.5,3.5,59,0.00,CLR,,0.14,WeatherDisplay:10.37,2013-08-11 20:29:00,
2013-08-11 13:34:00,76.1,60.7,29.41,North,0,3.5,3.5,59,0.00,CLR,,0.14,WeatherDisplay:10.37,2013-08-11 20:34:00,
2013-08-11 13:39:00,75.9,60.6,29.40,SW,225,3.5,3.5,59,0.00,CLR,,0.14,WeatherDisplay:10.37,2013-08-11 20:39:00,
2013-08-11 13:44:00,76.6,59.8,29.40,West,270,3.5,3.5,56,0.00,CLR,,0.14,WeatherDisplay:10.37,2013-08-11 20:44:00,
2013-08-11 13:49:00,77.0,60.1,29.40,NE,45,5.8,5.8,56,0.00,CLR,,0.14,WeatherDisplay:10.37,2013-08-11 20:49:00,
2013-08-11 13:54:00,76.1,59.8,29.40,South,180,1.6,1.6,57,0.00,CLR,,0.14,WeatherDisplay:10.37,2013-08-11 20:54:00,
2013-08-11 13:59:00,76.6,60.3,29.40,East,90,1.1,1.1,57,0.00,CLR,,0.14,WeatherDisplay:10.37,2013-08-11 20:59:00,
2013-08-11 14:05:00,77.0,59.6,29.40,West,270,3.5,0.0,55,0.00,CLR,,0.14,WeatherDisplay:10.37,2013-08-11 21:05:00,
2013-08-11 14:10:00,77.5,59.6,29.39,West,270,2.3,2.3,54,0.00,CLR,,0.14,WeatherDisplay:10.37,2013-08-11 21:10:00,
2013-08-11 14:15:00,77.4,59.4,29.39,WSW,256,1.0,0.0,54,0.00,CLR,CLR,0.14,WeatherDisplay:10.37,2013-08-11 21:15:00,
2013-08-11 14:21:00,77.5,59.1,29.39,SW,225,1.1,1.1,53,0.00,CLR,,0.14,WeatherDisplay:10.37,2013-08-11 21:21:00,
2013-08-11 14:27:00,79.0,61.9,29.39,NNW,338,2.3,0.0,56,0.00,CLR,,0.14,WeatherDisplay:10.37,2013-08-11 21:27:00,
2013-08-11 14:32:00,79.7,60.0,29.39,East,90,3.5,3.5,51,0.00,CLR,,0.14,WeatherDisplay:10.37,2013-08-11 21:32:00,
2013-08-11 14:37:00,79.2,60.0,29.39,NE,45,3.5,3.5,52,0.00,CLR,,0.14,WeatherDisplay:10.37,2013-08-11 21:37:00,
2013-08-11 14:42:00,78.6,60.6,29.38,West,270,2.3,0.0,54,0.00,CLR,,0.14,WeatherDisplay:10.37,2013-08-11 21:42:00,
2013-08-11 14:48:00,76.8,59.9,29.39,West,270,4.6,4.6,56,0.00,CLR,,0.14,WeatherDisplay:10.37,2013-08-11 21:48:00,
2013-08-11 14:53:00,75.0,59.7,29.38,West,270,3.5,0.0,59,0.00,CLR,,0.14,WeatherDisplay:10.37,2013-08-11 21:53:00,
2013-08-11 14:58:00,74.8,60.9,29.38,West,270,1.1,1.1,62,0.00,CLR,,0.14,WeatherDisplay:10.37,2013-08-11 21:58:00,
2013-08-11 15:03:00,74.8,60.0,29.38,West,270,3.5,3.5,60,0.00,CLR,,0.14,WeatherDisplay:10.37,2013-08-11 22:03:00,
2013-08-11 15:09:00,76.1,61.7,29.38,East,90,1.1,0.0,61,0.00,CLR,,0.14,WeatherDisplay:10.37,2013-08-11 22:09:00,
2013-08-11 15:14:00,77.4,60.9,29.37,SW,225,1.1,0.0,57,0.00,CLR,,0.14,WeatherDisplay:10.37,2013-08-11 22:14:00,
2013-08-11 15:19:00,76.3,59.4,29.38,NW,315,3.5,3.5,56,0.00,CLR,,0.14,WeatherDisplay:10.37,2013-08-11 22:19:00,
2013-08-11 15:25:00,75.4,60.5,29.38,West,270,3.5,3.5,60,0.00,CLR,,0.14,WeatherDisplay:10.37,2013-08-11 22:25:00,
2013-08-11 15:30:00,74.4,60.1,29.37,West,270,1.0,0.0,61,0.00,CLR,CLR,0.14,WeatherDisplay:10.37,2013-08-11 22:30:00,
2013-08-11 15:35:00,73.6,60.2,29.38,SW,225,2.3,2.3,63,0.00,CLR,,0.14,WeatherDisplay:10.37,2013-08-11 22:35:00,
2013-08-11 15:40:00,73.4,60.5,29.37,West,270,3.5,3.5,64,0.00,CLR,,0.14,WeatherDisplay:10.37,2013-08-11 22:40:00,
2013-08-11 15:45:00,73.2,60.3,29.37,West,270,2.3,2.3,64,0.00,CLR,,0.14,WeatherDisplay:10.37,2013-08-11 22:45:00,
2013-08-11 15:51:00,73.2,60.7,29.37,West,270,1.1,1.1,65,0.00,CLR,,0.14,WeatherDisplay:10.37,2013-08-11 22:51:00,
2013-08-11 15:56:00,73.2,60.3,29.37,West,270,3.5,3.5,64,0.00,CLR,,0.14,WeatherDisplay:10.37,2013-08-11 22:56:00,
2013-08-11 16:01:00,73.0,60.1,29.37,West,270,4.6,0.0,64,0.00,RA,,0.00,WeatherDisplay:10.37,2013-08-11 23:01:00,
2013-08-11 16:06:00,73.4,60.9,29.37,West,270,2.3,2.3,65,0.00,RA,,0.00,WeatherDisplay:10.37,2013-08-11 23:06:00,
2013-08-11 16:12:00,73.2,59.9,29.37,West,270,3.5,3.5,63,0.00,CLR,,0.00,WeatherDisplay:10.37,2013-08-11 23:12:00,
2013-08-11 16:17:00,72.7,59.8,29.37,West,270,2.3,0.0,64,0.00,CLR,,0.00,WeatherDisplay:10.37,2013-08-11 23:17:00,
2013-08-11 16:22:00,72.7,59.8,29.37,West,270,1.1,1.1,64,0.00,CLR,,0.00,WeatherDisplay:10.37,2013-08-11 23:22:00,
2013-08-11 16:28:00,72.5,59.6,29.37,West,270,4.6,4.6,64,0.00,CLR,,0.00,WeatherDisplay:10.37,2013-08-11 23:28:00,
2013-08-11 16:33:00,72.1,59.7,29.38,West,270,3.5,3.5,65,0.00,CLR,,0.00,WeatherDisplay:10.37,2013-08-11 23:33:00,
2013-08-11 16:38:00,72.1,59.3,29.38,NW,315,3.5,0.0,64,0.00,CLR,,0.00,WeatherDisplay:10.37,2013-08-11 23:38:00,
2013-08-11 16:43:00,72.1,59.3,29.38,West,270,4.6,4.6,64,0.00,CLR,,0.00,WeatherDisplay:10.37,2013-08-11 23:43:00,
2013-08-11 16:48:00,71.8,58.9,29.37,SW,225,3.5,3.5,64,0.00,CLR,,0.00,WeatherDisplay:10.37,2013-08-11 23:48:00,
2013-08-11 16:53:00,71.6,59.2,29.37,West,270,3.5,3.5,65,0.00,CLR,,0.00,WeatherDisplay:10.37,2013-08-11 23:53:00,
2013-08-11 16:59:00,71.2,58.9,29.37,West,270,3.5,0.0,65,0.00,CLR,,0.00,WeatherDisplay:10.37,2013-08-11 23:59:00,
2013-08-11 17:04:00,70.9,58.5,29.37,West,270,4.6,4.6,65,0.00,CLR,,0.00,WeatherDisplay:10.37,2013-08-12 00:04:00,
2013-08-11 17:09:00,70.5,58.6,29.37,West,270,1.1,1.1,66,0.00,CLR,,0.00,WeatherDisplay:10.37,2013-08-12 00:09:00,
2013-08-11 17:14:00,70.3,58.4,29.37,SW,225,2.3,2.3,66,0.00,CLR,,0.00,WeatherDisplay:10.37,2013-08-12 00:14:00,
2013-08-11 17:20:00,70.2,58.7,29.37,WSW,258,1.0,0.0,67,0.00,CLR,CLR,0.00,WeatherDisplay:10.37,2013-08-12 00:20:00,
2013-08-11 17:25:00,70.0,58.9,29.36,West,270,2.3,2.3,68,0.00,CLR,,0.00,WeatherDisplay:10.37,2013-08-12 00:25:00,
2013-08-11 17:30:00,69.8,58.8,29.36,West,270,2.3,2.3,68,0.00,CLR,,0.00,WeatherDisplay:10.37,2013-08-12 00:30:00,
2013-08-11 17:35:00,69.6,58.6,29.36,West,270,3.5,3.5,68,0.00,CLR,,0.00,WeatherDisplay:10.37,2013-08-12 00:35:00,
2013-08-11 17:40:00,69.6,59.0,29.36,West,270,3.5,0.0,69,0.00,CLR,,0.00,WeatherDisplay:10.37,2013-08-12 00:40:00,
2013-08-11 17:46:00,70.0,59.3,29.36,West,270,3.5,3.5,69,0.00,CLR,,0.00,WeatherDisplay:10.37,2013-08-12 00:46:00,
2013-08-11 17:51:00,71.4,60.3,29.35,West,270,1.1,1.1,68,0.00,CLR,,0.00,WeatherDisplay:10.37,2013-08-12 00:51:00,
2013-08-11 17:56:00,72.7,60.2,29.36,West,270,2.3,2.3,65,0.00,CLR,,0.00,WeatherDisplay:10.37,2013-08-12 00:56:00,
2013-08-11 18:01:00,73.8,60.4,29.36,West,270,3.5,0.0,63,0.00,CLR,,0.00,WeatherDisplay:10.37,2013-08-12 01:01:00,
2013-08-11 18:07:00,75.4,61.0,29.35,West,270,1.1,0.0,61,0.00,CLR,,0.00,WeatherDisplay:10.37,2013-08-12 01:07:00,
2013-08-11 18:12:00,75.7,60.4,29.35,West,270,3.5,3.5,59,0.00,CLR,,0.00,WeatherDisplay:10.37,2013-08-12 01:12:00,
2013-08-11 18:17:00,75.6,60.2,29.35,SW,225,3.5,3.5,59,0.00,CLR,,0.00,WeatherDisplay:10.37,2013-08-12 01:17:00,
2013-08-11 18:22:00,75.6,60.7,29.35,West,270,3.5,3.5,60,0.00,CLR,,0.00,WeatherDisplay:10.37,2013-08-12 01:22:00,
2013-08-11 18:27:00,76.8,61.4,29.35,SW,225,1.1,1.1,59,0.00,CLR,,0.00,WeatherDisplay:10.37,2013-08-12 01:27:00,
2013-08-11 18:32:00,76.1,59.8,29.36,West,270,3.5,0.0,57,0.00,CLR,,0.00,WeatherDisplay:10.37,2013-08-12 01:32:00,
2013-08-11 18:37:00,76.3,60.9,29.36,West,270,1.1,0.0,59,0.00,CLR,,0.00,WeatherDisplay:10.37,2013-08-12 01:37:00,
2013-08-11 18:43:00,77.0,60.6,29.36,West,270,3.5,3.5,57,0.00,CLR,,0.00,WeatherDisplay:10.37,2013-08-12 01:43:00,
2013-08-11 18:48:00,75.4,59.6,29.36,West,270,4.6,4.6,58,0.00,CLR,,0.00,WeatherDisplay:10.37,2013-08-12 01:48:00,
2013-08-11 18:53:00,73.8,59.5,29.36,West,270,3.8,3.8,61,0.00,CLR,,0.00,WeatherDisplay:10.37,2013-08-12 01:53:00,
2013-08-11 18:58:00,73.4,60.0,29.35,West,270,3.5,3.5,63,0.00,CLR,,0.00,WeatherDisplay:10.37,2013-08-12 01:58:00,
2013-08-11 19:04:00,72.7,59.4,29.36,West,270,4.6,4.6,63,0.00,CLR,,0.00,WeatherDisplay:10.37,2013-08-12 02:04:00,
2013-08-11 19:09:00,72.3,59.5,29.36,West,270,1.1,1.1,64,0.00,CLR,,0.00,WeatherDisplay:10.37,2013-08-12 02:09:00,
2013-08-11 19:15:00,71.9,59.0,29.36,West,270,1.0,0.0,64,0.00,CLR,CLR,0.00,WeatherDisplay:10.37,2013-08-12 02:15:00,
2013-08-11 19:20:00,71.1,59.2,29.36,West,270,2.0,0.0,66,0.00,CLR,CLR,0.00,WeatherDisplay:10.37,2013-08-12 02:20:00,
2013-08-11 19:25:00,70.2,59.2,29.36,West,267,1.0,0.0,68,0.00,CLR,CLR,0.00,WeatherDisplay:10.37,2013-08-12 02:25:00,
2013-08-11 19:30:00,69.6,59.0,29.36,West,270,2.3,2.3,69,0.00,CLR,,0.00,WeatherDisplay:10.37,2013-08-12 02:30:00,
2013-08-11 19:35:00,68.9,58.3,29.36,West,270,2.0,0.0,69,0.00,CLR,CLR,0.00,WeatherDisplay:10.37,2013-08-12 02:35:00,
2013-08-11 19:40:00,68.4,57.8,29.37,NW,315,3.5,3.5,69,0.00,CLR,,0.00,WeatherDisplay:10.37,2013-08-12 02:40:00,
2013-08-11 19:45:00,68.0,58.2,29.36,WNW,291,1.0,0.0,71,0.00,CLR,CLR,0.00,WeatherDisplay:10.37,2013-08-12 02:45:00,
2013-08-11 19:50:00,67.5,57.7,29.37,West,270,3.5,3.5,71,0.00,CLR,,0.00,WeatherDisplay:10.37,2013-08-12 02:50:00,
2013-08-11 19:55:00,67.1,57.8,29.37,West,267,0.0,0.0,72,0.00,CLR,CLR,0.00,WeatherDisplay:10.37,2013-08-12 02:55:00,
2013-08-11 20:00:00,66.4,57.5,29.37,West,270,2.3,2.3,73,0.00,CLR,,0.00,WeatherDisplay:10.37,2013-08-12 03:00:00,
2013-08-11 20:05:00,65.7,56.8,29.37,SW,225,1.1,1.6,73,0.00,CLR,,0.00,WeatherDisplay:10.37,2013-08-12 03:05:00,
2013-08-11 20:10:00,64.9,56.5,29.37,West,270,3.5,0.0,74,0.00,CLR,,0.00,WeatherDisplay:10.37,2013-08-12 03:10:00,
2013-08-11 20:16:00,64.2,56.5,29.37,West,270,3.5,3.5,76,0.00,CLR,,0.00,WeatherDisplay:10.37,2013-08-12 03:16:00,
2013-08-11 20:21:00,63.7,56.0,29.37,SW,225,3.5,3.5,76,0.00,CLR,,0.00,WeatherDisplay:10.37,2013-08-12 03:21:00,
2013-08-11 20:27:00,63.1,55.8,29.37,West,270,1.1,0.0,77,0.00,CLR,,0.00,WeatherDisplay:10.37,2013-08-12 03:27:00,
2013-08-11 20:32:00,62.8,55.8,29.38,West,270,1.1,0.0,78,0.00,CLR,,0.00,WeatherDisplay:10.37,2013-08-12 03:32:00,
2013-08-11 20:37:00,62.2,55.3,29.37,West,270,2.3,0.0,78,0.00,CLR,,0.00,WeatherDisplay:10.37,2013-08-12 03:37:00,
2013-08-11 20:42:00,61.9,54.9,29.38,West,270,2.3,2.3,78,0.00,CLR,,0.00,WeatherDisplay:10.37,2013-08-12 03:42:00,
2013-08-11 20:47:00,61.5,54.9,29.37,West,270,1.1,0.0,79,0.00,CLR,,0.00,WeatherDisplay:10.37,2013-08-12 03:47:00,
2013-08-11 20:52:00,61.2,54.6,29.37,West,270,3.5,3.5,79,0.00,CLR,,0.00,WeatherDisplay:10.37,2013-08-12 03:52:00,
2013-08-11 20:57:00,61.0,54.8,29.37,West,270,3.5,3.5,80,0.00,CLR,,0.00,WeatherDisplay:10.37,2013-08-12 03:57:00,
2013-08-11 21:01:00,60.8,54.6,29.37,West,270,2.3,2.3,80,0.00,CLR,,0.00,WeatherDisplay:10.37,2013-08-12 04:01:00,
2013-08-11 21:02:00,60.8,54.6,29.37,SW,225,2.3,2.3,80,0.00,CLR,,0.00,WeatherDisplay:10.37,2013-08-12 04:02:00,
2013-08-11 21:04:00,60.6,54.4,29.37,West,270,3.5,0.0,80,0.00,CLR,,0.00,WeatherDisplay:10.37,2013-08-12 04:04:00,
2013-08-11 21:09:00,60.6,54.4,29.37,West,270,0.0,0.0,80,0.00,CLR,,0.00,WeatherDisplay:10.37,2013-08-12 04:09:00,
2013-08-11 21:15:00,60.3,54.1,29.37,West,270,0.0,0.0,80,0.00,CLR,CLR,0.00,WeatherDisplay:10.37,2013-08-12 04:15:00,
2013-08-11 21:20:00,60.1,54.2,29.37,West,270,0.0,0.0,81,0.00,CLR,,0.00,WeatherDisplay:10.37,2013-08-12 04:20:00,
2013-08-11 21:25:00,59.9,54.4,29.37,West,261,0.0,0.0,82,0.00,CLR,CLR,0.00,WeatherDisplay:10.37,2013-08-12 04:25:00,
2013-08-11 21:30:00,59.7,54.2,29.37,West,270,1.1,0.0,82,0.00,CLR,,0.00,WeatherDisplay:10.37,2013-08-12 04:30:00,
2013-08-11 21:35:00,59.5,54.0,29.38,West,263,0.0,0.0,82,0.00,CLR,CLR,0.00,WeatherDisplay:10.37,2013-08-12 04:35:00,
2013-08-11 21:40:00,59.2,53.7,29.38,West,270,0.0,0.0,82,0.00,CLR,,0.00,WeatherDisplay:10.37,2013-08-12 04:40:00,
2013-08-11 21:45:00,59.4,54.5,29.38,SW,225,3.1,3.1,84,0.00,CLR,,0.00,WeatherDisplay:10.37,2013-08-12 04:45:00,
2013-08-11 21:50:00,59.4,54.5,29.38,WSW,257,1.0,0.0,84,0.00,CLR,CLR,0.00,WeatherDisplay:10.37,2013-08-12 04:50:00,
2013-08-11 21:55:00,59.4,54.5,29.38,West,270,0.0,0.0,84,0.00,CLR,,0.00,WeatherDisplay:10.37,2013-08-12 04:55:00,
2013-08-11 22:00:00,59.2,54.3,29.38,SW,225,1.1,0.0,84,0.00,CLR,,0.00,WeatherDisplay:10.37,2013-08-12 05:00:00,
2013-08-11 22:05:00,59.2,54.3,29.38,West,270,1.1,0.0,84,0.00,CLR,,0.00,WeatherDisplay:10.37,2013-08-12 05:05:00,
2013-08-11 22:10:00,59.0,54.2,29.39,West,270,1.1,0.0,84,0.00,CLR,,0.00,WeatherDisplay:10.37,2013-08-12 05:10:00,
2013-08-11 22:15:00,59.0,54.5,29.39,SW,225,0.0,0.0,85,0.00,CLR,,0.00,WeatherDisplay:10.37,2013-08-12 05:15:00,
2013-08-11 22:20:00,58.8,54.3,29.38,West,270,2.3,0.0,85,0.00,CLR,,0.00,WeatherDisplay:10.37,2013-08-12 05:20:00,
2013-08-11 22:25:00,58.8,54.3,29.38,West,270,1.1,0.0,85,0.00,CLR,,0.00,WeatherDisplay:10.37,2013-08-12 05:25:00,
2013-08-11 22:30:00,58.5,54.0,29.38,West,270,1.1,0.0,85,0.00,CLR,,0.00,WeatherDisplay:10.37,2013-08-12 05:30:00,
2013-08-11 22:35:00,58.5,54.0,29.38,West,270,1.1,0.0,85,0.00,CLR,,0.00,WeatherDisplay:10.37,2013-08-12 05:35:00,
2013-08-11 22:40:00,58.3,54.1,29.39,West,270,1.1,1.1,86,0.00,CLR,,0.00,WeatherDisplay:10.37,2013-08-12 05:40:00,
2013-08-11 22:45:00,58.3,54.1,29.38,West,270,2.3,0.0,86,0.00,CLR,,0.00,WeatherDisplay:10.37,2013-08-12 05:45:00,
2013-08-11 22:50:00,58.1,53.9,29.39,West,270,1.1,0.0,86,0.00,CLR,,0.00,WeatherDisplay:10.37,2013-08-12 05:50:00,
2013-08-11 22:55:00,58.1,53.9,29.39,West,270,1.1,0.0,86,0.00,CLR,,0.00,WeatherDisplay:10.37,2013-08-12 05:55:00,
2013-08-11 23:00:00,57.7,53.9,29.39,West,270,1.1,0.0,87,0.00,CLR,,0.00,WeatherDisplay:10.37,2013-08-12 06:00:00,
2013-08-11 23:05:00,57.6,53.7,29.39,West,270,1.1,0.0,87,0.00,CLR,,0.00,WeatherDisplay:10.37,2013-08-12 06:05:00,
2013-08-11 23:10:00,57.6,53.7,29.39,West,270,1.1,0.0,87,0.00,CLR,,0.00,WeatherDisplay:10.37,2013-08-12 06:10:00,
2013-08-11 23:15:00,57.2,53.4,29.39,West,270,0.0,0.0,87,0.00,CLR,,0.00,WeatherDisplay:10.37,2013-08-12 06:15:00,
2013-08-11 23:20:00,57.0,53.2,29.39,West,270,1.1,0.0,87,0.00,CLR,,0.00,WeatherDisplay:10.37,2013-08-12 06:20:00,
2013-08-11 23:25:00,57.0,53.5,29.39,West,270,1.6,0.0,88,0.00,CLR,,0.00,WeatherDisplay:10.37,2013-08-12 06:25:00,
2013-08-11 23:30:00,56.7,53.1,29.39,West,270,1.1,0.0,88,0.00,CLR,,0.00,WeatherDisplay:10.37,2013-08-12 06:30:00,
2013-08-11 23:35:00,56.7,53.5,29.39,West,270,1.1,0.0,89,0.00,CLR,,0.00,WeatherDisplay:10.37,2013-08-12 06:35:00,
2013-08-11 23:40:00,56.7,53.5,29.39,West,270,1.1,0.0,89,0.00,CLR,,0.00,WeatherDisplay:10.37,2013-08-12 06:40:00,
2013-08-11 23:45:00,56.5,53.3,29.39,West,270,0.0,0.0,89,0.00,CLR,,0.00,WeatherDisplay:10.37,2013-08-12 06:45:00,
2013-08-11 23:50:00,56.1,52.9,29.39,West,270,1.1,0.0,89,0.00,CLR,,0.00,WeatherDisplay:10.37,2013-08-12 06:50:00,
2013-08-11 23:55:00,56.1,52.9,29.38,West,270,1.1,0.0,89,0.00,CLR,,0.00,WeatherDisplay:10.37,2013-08-12 06:55:00,